Sea Cloud — 9HOM2 — position and weather

sailwx.info

Track history (hours):
 
Tides and Currents Weather Stations Pressure Air Temp Water Temp Dewpoint Dewpoint Depression Visibility Wind Speed Wind Dir Waves Ship Positions

Sea Cloud

Ship's website: http://www.seacloud.com/en/the-ships/sea-cloud.html

Last reported at 2017-Jul-22 16:42 UTC. Time now 2017-Jul-24 08:37 UTC.
Position N 37°34' E 023°41'.

Length 110 m; draft 5.1 m.

Type: Ship. MMSI: 256084000.

Date/timePositionNaut miles runAvg speedWind from/ knotsBaromVisibWave heightAir tempDewpointWater temp
2017-Jul-22 16:42N 37°34' E 023°41'2 9.7
2017-Jul-22 16:30N 37°36' E 023°42'510.1
2017-Jul-22 16:00N 37°41' E 023°41'510.2
2017-Jul-22 15:31N 37°45' E 023°39'510.2
2017-Jul-22 15:01N 37°50' E 023°37'6 6.3
2017-Jul-22 14:00N 37°56' E 023°38'0 0.0
2017-Jul-22 13:24N 37°56' E 023°38'0 0.0
2017-Jul-22 13:00N 37°56' E 023°38'0 0.0
2017-Jul-22 12:31N 37°56' E 023°38'0 0.0
2017-Jul-22 12:00N 37°56' E 023°38'0 0.0
2017-Jul-22 11:31N 37°56' E 023°38'0 0.0
2017-Jul-22 11:00N 37°56' E 023°38'0 0.0
2017-Jul-22 10:30N 37°56' E 023°38'0 0.0
2017-Jul-22 10:00N 37°56' E 023°38'0 0.0
2017-Jul-22 09:30N 37°56' E 023°38'0 0.0
2017-Jul-22 09:00N 37°56' E 023°38'0 0.0
2017-Jul-22 08:28N 37°56' E 023°38'0 0.0
2017-Jul-22 07:58N 37°56' E 023°38'0 0.0
2017-Jul-22 07:28N 37°56' E 023°38'0 0.0
2017-Jul-22 06:58N 37°56' E 023°38'0 0.0
2017-Jul-22 06:28N 37°56' E 023°38'0 0.0
2017-Jul-22 05:58N 37°56' E 023°38'0 0.0
2017-Jul-22 05:28N 37°56' E 023°38'0 0.0
2017-Jul-22 04:58N 37°56' E 023°38'0 0.0
2017-Jul-22 04:28N 37°56' E 023°38'0 0.0
2017-Jul-22 03:58N 37°56' E 023°38'1 2.1
2017-Jul-22 03:30N 37°56' E 023°37'2 3.2
2017-Jul-22 03:00N 37°55' E 023°37'3 6.3
2017-Jul-22 02:30N 37°52' E 023°38'3 6.2
2017-Jul-22 02:00N 37°49' E 023°40'3 6.2
2017-Jul-22 01:30N 37°46' E 023°42'3 6.6
2017-Jul-22 01:00N 37°43' E 023°44'3 6.4
2017-Jul-22 00:30N 37°40' E 023°45'3 6.3
2017-Jul-22 00:00N 37°37' E 023°46'3 6.2
2017-Jul-21 23:30N 37°34' E 023°46'3 6.2
2017-Jul-21 23:00N 37°31' E 023°45'3 6.9
2017-Jul-21 22:30N 37°28' E 023°42'3 6.9
2017-Jul-21 22:00N 37°25' E 023°40'11 6.6
2017-Jul-21 20:18N 37°16' E 023°33'2 6.1
2017-Jul-21 19:57N 37°14' E 023°31'35 3.9
2017-Jul-21 11:07N 37°26' E 022°50'  
2017-Jul-18 13:46N 37°07' E 025°44'1 5.7
2017-Jul-18 13:30N 37°08' E 025°42'3 5.7
2017-Jul-18 13:00N 37°10' E 025°40'6 6.5
2017-Jul-18 12:00N 37°15' E 025°35'510.9
2017-Jul-18 11:30N 37°18' E 025°29'510.2
2017-Jul-18 11:00N 37°20' E 025°23'510.2
2017-Jul-18 10:30N 37°21' E 025°17'3 4.7
2017-Jul-18 09:57N 37°23' E 025°16'0 0.0
2017-Jul-18 09:30N 37°23' E 025°16'0 0.0
2017-Jul-18 09:00N 37°23' E 025°16'0 0.0
2017-Jul-18 08:30N 37°23' E 025°16'0 0.0
2017-Jul-18 08:00N 37°23' E 025°16'0 0.0
2017-Jul-18 07:30N 37°23' E 025°16'0 0.0
2017-Jul-18 06:54N 37°23' E 025°16'0 0.0
2017-Jul-18 06:24N 37°23' E 025°16'0 0.0
2017-Jul-18 06:00N 37°23' E 025°16'0 0.0
2017-Jul-18 05:30N 37°23' E 025°16'0 0.1
2017-Jul-18 05:00N 37°23' E 025°16'0 0.1
2017-Jul-18 04:30N 37°23' E 025°16'3 5.5
2017-Jul-18 04:00N 37°21' E 025°15'3 6.2
2017-Jul-18 03:30N 37°19' E 025°11'4 6.9
2017-Jul-18 03:00N 37°18' E 025°07'3 6.3
2017-Jul-18 02:30N 37°17' E 025°04'3 5.9
2017-Jul-18 02:00N 37°15' E 025°01'3 5.7
2017-Jul-18 01:30N 37°13' E 024°58'3 6.4
2017-Jul-18 01:00N 37°11' E 024°55'  
2017-Jul-15 17:35N 37°37' E 023°51'1 9.3
2017-Jul-15 17:30N 37°37' E 023°50'5 8.9
2017-Jul-15 16:57N 37°39' E 023°44'4 8.6
2017-Jul-15 16:30N 37°42' E 023°41'5 9.5
2017-Jul-15 16:01N 37°46' E 023°39'4 8.5
2017-Jul-15 15:31N 37°50' E 023°37'4 8.4
2017-Jul-15 15:00N 37°54' E 023°37'2 2.4
2017-Jul-15 13:59N 37°56' E 023°38'0 0.0
2017-Jul-15 13:27N 37°56' E 023°38'0 0.0
2017-Jul-15 13:01N 37°56' E 023°38'0 0.0
2017-Jul-15 12:19N 37°56' E 023°38'0 0.0
2017-Jul-15 11:55N 37°56' E 023°38'0 0.0
2017-Jul-15 11:27N 37°56' E 023°38'0 0.0
2017-Jul-15 10:57N 37°56' E 023°38'0 0.0
2017-Jul-15 10:30N 37°56' E 023°38'0 0.0
2017-Jul-15 10:00N 37°56' E 023°38'0 0.0
2017-Jul-15 09:30N 37°56' E 023°38'0 0.0
2017-Jul-15 08:57N 37°56' E 023°38'0 0.0
2017-Jul-15 08:26N 37°56' E 023°38'0 0.0
2017-Jul-15 07:57N 37°56' E 023°38'0 0.0
2017-Jul-15 07:27N 37°56' E 023°38'0 0.0
2017-Jul-15 06:57N 37°56' E 023°38'0 0.0
2017-Jul-15 06:31N 37°56' E 023°38'0 0.0
2017-Jul-15 06:00N 37°56' E 023°38'0 0.0
2017-Jul-15 05:27N 37°56' E 023°38'0 0.0
2017-Jul-15 05:01N 37°56' E 023°38'0 0.0
2017-Jul-15 04:28N 37°56' E 023°38'0 0.9
2017-Jul-15 04:00N 37°56' E 023°38'2 3.4
2017-Jul-15 03:30N 37°55' E 023°36'0 0.9
2017-Jul-15 03:00N 37°55' E 023°36'3 5.4
2017-Jul-15 02:30N 37°52' E 023°38'3 5.7
2017-Jul-15 02:00N 37°50' E 023°40'3 5.9
2017-Jul-15 01:30N 37°47' E 023°41'3 6.2
2017-Jul-15 01:00N 37°44' E 023°43'3 6.3
2017-Jul-15 00:31N 37°42' E 023°44'3 5.8
2017-Jul-15 00:00N 37°39' E 023°45'3 5.9
2017-Jul-14 23:30N 37°36' E 023°44'3 5.9
2017-Jul-14 23:00N 37°33' E 023°43'3 6.3
2017-Jul-14 22:30N 37°30' E 023°42'4 6.0
2017-Jul-14 21:54N 37°26' E 023°41'2 6.1
2017-Jul-14 21:30N 37°24' E 023°39'13 6.3
2017-Jul-14 19:25N 37°14' E 023°30'3 5.9
2017-Jul-14 18:55N 37°12' E 023°27'90 2.0
2017-Jul-12 21:18N 36°59' E 025°18'2 6.1
2017-Jul-12 21:01N 37°01' E 025°19'3 6.3
2017-Jul-12 20:31N 37°04' E 025°20'1 1.4
2017-Jul-12 20:00N 37°04' E 025°21'0 0.0
2017-Jul-12 19:30N 37°04' E 025°21'0 0.0
2017-Jul-12 19:00N 37°04' E 025°21'0 0.0
2017-Jul-12 18:30N 37°04' E 025°21'0 0.0
2017-Jul-12 18:00N 37°04' E 025°21'0 0.0
2017-Jul-12 17:27N 37°04' E 025°21'0 0.0
2017-Jul-12 17:00N 37°04' E 025°21'  
Track history (hours):
 
Tides and Currents Weather Stations Pressure Air Temp Water Temp Dewpoint Dewpoint Depression Visibility Wind Speed Wind Dir Waves Ship Positions

Sea Cloud

Ship's website: http://www.seacloud.com/en/the-ships/sea-cloud.html

Last reported at 2017-Jul-22 16:42 UTC. Time now 2017-Jul-24 08:37 UTC.
Position N 37°34' E 023°41'.

Length 110 m; draft 5.1 m.

Type: Ship. MMSI: 256084000.

Date/timePositionNaut miles runAvg speedWind from/ knotsBaromVisibWave heightAir tempDewpointWater temp
2017-Jul-22 16:42N 37°34' E 023°41'2 9.7
2017-Jul-22 16:30N 37°36' E 023°42'510.1
2017-Jul-22 16:00N 37°41' E 023°41'510.2
2017-Jul-22 15:31N 37°45' E 023°39'510.2
2017-Jul-22 15:01N 37°50' E 023°37'6 6.3
2017-Jul-22 14:00N 37°56' E 023°38'0 0.0
2017-Jul-22 13:24N 37°56' E 023°38'0 0.0
2017-Jul-22 13:00N 37°56' E 023°38'0 0.0
2017-Jul-22 12:31N 37°56' E 023°38'0 0.0
2017-Jul-22 12:00N 37°56' E 023°38'0 0.0
2017-Jul-22 11:31N 37°56' E 023°38'0 0.0
2017-Jul-22 11:00N 37°56' E 023°38'0 0.0
2017-Jul-22 10:30N 37°56' E 023°38'0 0.0
2017-Jul-22 10:00N 37°56' E 023°38'0 0.0
2017-Jul-22 09:30N 37°56' E 023°38'0 0.0
2017-Jul-22 09:00N 37°56' E 023°38'0 0.0
2017-Jul-22 08:28N 37°56' E 023°38'0 0.0
2017-Jul-22 07:58N 37°56' E 023°38'0 0.0
2017-Jul-22 07:28N 37°56' E 023°38'0 0.0
2017-Jul-22 06:58N 37°56' E 023°38'0 0.0
2017-Jul-22 06:28N 37°56' E 023°38'0 0.0
2017-Jul-22 05:58N 37°56' E 023°38'0 0.0
2017-Jul-22 05:28N 37°56' E 023°38'0 0.0
2017-Jul-22 04:58N 37°56' E 023°38'0 0.0
2017-Jul-22 04:28N 37°56' E 023°38'0 0.0
2017-Jul-22 03:58N 37°56' E 023°38'1 2.1
2017-Jul-22 03:30N 37°56' E 023°37'2 3.2
2017-Jul-22 03:00N 37°55' E 023°37'3 6.3
2017-Jul-22 02:30N 37°52' E 023°38'3 6.2
2017-Jul-22 02:00N 37°49' E 023°40'3 6.2
2017-Jul-22 01:30N 37°46' E 023°42'3 6.6
2017-Jul-22 01:00N 37°43' E 023°44'3 6.4
2017-Jul-22 00:30N 37°40' E 023°45'3 6.3
2017-Jul-22 00:00N 37°37' E 023°46'3 6.2
2017-Jul-21 23:30N 37°34' E 023°46'3 6.2
2017-Jul-21 23:00N 37°31' E 023°45'3 6.9
2017-Jul-21 22:30N 37°28' E 023°42'3 6.9
2017-Jul-21 22:00N 37°25' E 023°40'11 6.6
2017-Jul-21 20:18N 37°16' E 023°33'2 6.1
2017-Jul-21 19:57N 37°14' E 023°31'35 3.9
2017-Jul-21 11:07N 37°26' E 022°50'  
2017-Jul-18 13:46N 37°07' E 025°44'1 5.7
2017-Jul-18 13:30N 37°08' E 025°42'3 5.7
2017-Jul-18 13:00N 37°10' E 025°40'6 6.5
2017-Jul-18 12:00N 37°15' E 025°35'510.9
2017-Jul-18 11:30N 37°18' E 025°29'510.2
2017-Jul-18 11:00N 37°20' E 025°23'510.2
2017-Jul-18 10:30N 37°21' E 025°17'3 4.7
2017-Jul-18 09:57N 37°23' E 025°16'0 0.0
2017-Jul-18 09:30N 37°23' E 025°16'0 0.0
2017-Jul-18 09:00N 37°23' E 025°16'0 0.0
2017-Jul-18 08:30N 37°23' E 025°16'0 0.0
2017-Jul-18 08:00N 37°23' E 025°16'0 0.0
2017-Jul-18 07:30N 37°23' E 025°16'0 0.0
2017-Jul-18 06:54N 37°23' E 025°16'0 0.0
2017-Jul-18 06:24N 37°23' E 025°16'0 0.0
2017-Jul-18 06:00N 37°23' E 025°16'0 0.0
2017-Jul-18 05:30N 37°23' E 025°16'0 0.1
2017-Jul-18 05:00N 37°23' E 025°16'0 0.1
2017-Jul-18 04:30N 37°23' E 025°16'3 5.5
2017-Jul-18 04:00N 37°21' E 025°15'3 6.2
2017-Jul-18 03:30N 37°19' E 025°11'4 6.9
2017-Jul-18 03:00N 37°18' E 025°07'3 6.3
2017-Jul-18 02:30N 37°17' E 025°04'3 5.9
2017-Jul-18 02:00N 37°15' E 025°01'3 5.7
2017-Jul-18 01:30N 37°13' E 024°58'3 6.4
2017-Jul-18 01:00N 37°11' E 024°55'  
2017-Jul-15 17:35N 37°37' E 023°51'1 9.3
2017-Jul-15 17:30N 37°37' E 023°50'5 8.9
2017-Jul-15 16:57N 37°39' E 023°44'4 8.6
2017-Jul-15 16:30N 37°42' E 023°41'5 9.5
2017-Jul-15 16:01N 37°46' E 023°39'4 8.5
2017-Jul-15 15:31N 37°50' E 023°37'4 8.4
2017-Jul-15 15:00N 37°54' E 023°37'2 2.4
2017-Jul-15 13:59N 37°56' E 023°38'0 0.0
2017-Jul-15 13:27N 37°56' E 023°38'0 0.0
2017-Jul-15 13:01N 37°56' E 023°38'0 0.0
2017-Jul-15 12:19N 37°56' E 023°38'0 0.0
2017-Jul-15 11:55N 37°56' E 023°38'0 0.0
2017-Jul-15 11:27N 37°56' E 023°38'0 0.0
2017-Jul-15 10:57N 37°56' E 023°38'0 0.0
2017-Jul-15 10:30N 37°56' E 023°38'0 0.0
2017-Jul-15 10:00N 37°56' E 023°38'0 0.0
2017-Jul-15 09:30N 37°56' E 023°38'0 0.0
2017-Jul-15 08:57N 37°56' E 023°38'0 0.0
2017-Jul-15 08:26N 37°56' E 023°38'0 0.0
2017-Jul-15 07:57N 37°56' E 023°38'0 0.0
2017-Jul-15 07:27N 37°56' E 023°38'0 0.0
2017-Jul-15 06:57N 37°56' E 023°38'0 0.0
2017-Jul-15 06:31N 37°56' E 023°38'0 0.0
2017-Jul-15 06:00N 37°56' E 023°38'0 0.0
2017-Jul-15 05:27N 37°56' E 023°38'0 0.0
2017-Jul-15 05:01N 37°56' E 023°38'0 0.0
2017-Jul-15 04:28N 37°56' E 023°38'0 0.9
2017-Jul-15 04:00N 37°56' E 023°38'2 3.4
2017-Jul-15 03:30N 37°55' E 023°36'0 0.9
2017-Jul-15 03:00N 37°55' E 023°36'3 5.4
2017-Jul-15 02:30N 37°52' E 023°38'3 5.7
2017-Jul-15 02:00N 37°50' E 023°40'3 5.9
2017-Jul-15 01:30N 37°47' E 023°41'3 6.2
2017-Jul-15 01:00N 37°44' E 023°43'3 6.3
2017-Jul-15 00:31N 37°42' E 023°44'3 5.8
2017-Jul-15 00:00N 37°39' E 023°45'3 5.9
2017-Jul-14 23:30N 37°36' E 023°44'3 5.9
2017-Jul-14 23:00N 37°33' E 023°43'3 6.3
2017-Jul-14 22:30N 37°30' E 023°42'4 6.0
2017-Jul-14 21:54N 37°26' E 023°41'2 6.1
2017-Jul-14 21:30N 37°24' E 023°39'13 6.3
2017-Jul-14 19:25N 37°14' E 023°30'3 5.9
2017-Jul-14 18:55N 37°12' E 023°27'90 2.0
2017-Jul-12 21:18N 36°59' E 025°18'2 6.1
2017-Jul-12 21:01N 37°01' E 025°19'3 6.3
2017-Jul-12 20:31N 37°04' E 025°20'1 1.4
2017-Jul-12 20:00N 37°04' E 025°21'0 0.0
2017-Jul-12 19:30N 37°04' E 025°21'0 0.0
2017-Jul-12 19:00N 37°04' E 025°21'0 0.0
2017-Jul-12 18:30N 37°04' E 025°21'0 0.0
2017-Jul-12 18:00N 37°04' E 025°21'0 0.0
2017-Jul-12 17:27N 37°04' E 025°21'0 0.0
2017-Jul-12 17:00N 37°04' E 025°21'  

Dump ship's entire track history